TimeEDT,TemperatureF,Dew PointF,Humidity,Sea Level PressureIn,VisibilityMPH,Wind Direction,Wind SpeedMPH,Gust SpeedMPH,PrecipitationIn,Events,Conditions,WindDirDegrees,DateUTC
12:15 AM,54.0,52.7,95,30.05,0.2,Calm,Calm,-,N/A,Fog,Fog,0,2013-09-30 04:15:00
12:35 AM,54.0,52.9,96,30.04,2.0,Calm,Calm,-,N/A,,Mostly Cloudy,0,2013-09-30 04:35:00
12:55 AM,53.2,52.0,95,30.04,0.2,Calm,Calm,-,N/A,Fog,Fog,0,2013-09-30 04:55:00
1:15 AM,52.7,51.6,96,30.04,7.0,Calm,Calm,-,N/A,,Mostly Cloudy,0,2013-09-30 05:15:00
1:35 AM,52.0,50.7,95,30.05,3.0,Calm,Calm,-,N/A,,Mostly Cloudy,0,2013-09-30 05:35:00
1:55 AM,51.4,50.2,95,30.05,0.5,Calm,Calm,-,N/A,Fog,Fog,0,2013-09-30 05:55:00
2:15 AM,51.3,50.2,96,30.05,0.8,Calm,Calm,-,N/A,,Mostly Cloudy,0,2013-09-30 06:15:00
2:35 AM,51.1,49.8,95,30.05,10.0,Calm,Calm,-,N/A,,Scattered Clouds,0,2013-09-30 06:35:00
2:55 AM,50.5,49.3,95,30.05,7.0,Calm,Calm,-,N/A,,Scattered Clouds,0,2013-09-30 06:55:00
3:15 AM,50.7,49.6,96,30.05,10.0,Calm,Calm,-,N/A,,Mostly Cloudy,0,2013-09-30 07:15:00
3:35 AM,51.8,50.7,96,30.05,10.0,Calm,Calm,-,N/A,,Overcast,0,2013-09-30 07:35:00
3:55 AM,52.2,51.1,96,30.05,10.0,Calm,Calm,-,N/A,,Overcast,0,2013-09-30 07:55:00
4:15 AM,52.9,51.6,95,30.04,10.0,Calm,Calm,-,N/A,,Overcast,0,2013-09-30 08:15:00
4:35 AM,52.9,51.8,96,30.05,10.0,Calm,Calm,-,N/A,,Overcast,0,2013-09-30 08:35:00
4:55 AM,52.9,51.6,95,30.05,7.0,Calm,Calm,-,N/A,,Overcast,0,2013-09-30 08:55:00
5:15 AM,52.5,51.3,95,30.05,7.0,Calm,Calm,-,N/A,,Overcast,0,2013-09-30 09:15:00
5:35 AM,52.9,51.8,96,30.05,10.0,Calm,Calm,-,N/A,,Overcast,0,2013-09-30 09:35:00
5:55 AM,52.3,51.1,95,30.05,1.5,Calm,Calm,-,N/A,,Mostly Cloudy,0,2013-09-30 09:55:00
6:15 AM,50.9,49.5,95,30.06,0.5,Calm,Calm,-,N/A,Fog,Fog,0,2013-09-30 10:15:00
6:35 AM,50.2,48.9,95,30.06,0.2,Calm,Calm,-,N/A,Fog,Fog,0,2013-09-30 10:35:00
6:55 AM,49.5,48.2,95,30.06,0.2,Calm,Calm,-,N/A,Fog,Fog,0,2013-09-30 10:55:00
7:15 AM,49.5,48.2,95,30.07,10.0,Calm,Calm,-,N/A,,Mostly Cloudy,0,2013-09-30 11:15:00
7:35 AM,49.3,48.2,96,30.08,7.0,Calm,Calm,-,N/A,,Scattered Clouds,0,2013-09-30 11:35:00
7:55 AM,52.0,51.1,97,30.08,10.0,Calm,Calm,-,N/A,,Clear,0,2013-09-30 11:55:00
8:15 AM,55.8,54.7,96,30.08,10.0,Calm,Calm,-,N/A,,Clear,0,2013-09-30 12:15:00
8:35 AM,59.0,57.6,95,30.08,10.0,NNW,3.5,-,N/A,,Clear,340,2013-09-30 12:35:00
8:55 AM,60.8,57.0,87,30.09,10.0,NNW,3.5,-,N/A,,Clear,330,2013-09-30 12:55:00
9:15 AM,61.3,56.5,84,30.08,10.0,Calm,Calm,-,N/A,,Clear,0,2013-09-30 13:15:00
9:35 AM,64.8,55.8,73,30.08,10.0,North,5.8,-,N/A,,Clear,360,2013-09-30 13:35:00
9:55 AM,67.6,54.0,61,30.08,10.0,North,6.9,-,N/A,,Clear,350,2013-09-30 13:55:00
10:15 AM,69.4,53.6,57,30.08,10.0,North,6.9,-,N/A,,Clear,360,2013-09-30 14:15:00
10:35 AM,70.2,52.7,54,30.08,10.0,North,8.1,-,N/A,,Clear,350,2013-09-30 14:35:00
10:55 AM,69.4,52.5,55,30.08,10.0,NNW,6.9,-,N/A,,Clear,340,2013-09-30 14:55:00
11:15 AM,71.2,52.5,52,30.08,10.0,North,8.1,-,N/A,,Clear,10,2013-09-30 15:15:00
11:35 AM,73.8,52.3,47,30.07,10.0,NNW,8.1,-,N/A,,Clear,340,2013-09-30 15:35:00
11:55 AM,74.1,51.8,46,30.06,10.0,North,6.9,17.3,N/A,,Clear,360,2013-09-30 15:55:00
12:15 PM,73.0,51.6,47,30.06,10.0,NNW,6.9,-,N/A,,Clear,340,2013-09-30 16:15:00
12:35 PM,75.0,51.6,44,30.05,10.0,North,5.8,-,N/A,,Clear,350,2013-09-30 16:35:00
12:55 PM,75.0,51.3,43,30.05,10.0,NNW,6.9,-,N/A,,Clear,330,2013-09-30 16:55:00
1:15 PM,75.7,52.2,44,30.04,10.0,North,9.2,-,N/A,,Clear,10,2013-09-30 17:15:00
1:35 PM,75.7,52.0,43,30.04,10.0,North,6.9,-,N/A,,Clear,360,2013-09-30 17:35:00
1:55 PM,76.8,51.6,41,30.03,10.0,NNW,6.9,-,N/A,,Clear,340,2013-09-30 17:55:00
2:15 PM,76.5,51.3,41,30.02,10.0,NE,3.5,-,N/A,,Clear,40,2013-09-30 18:15:00
2:35 PM,75.4,51.3,43,30.01,10.0,NNW,3.5,-,N/A,,Clear,330,2013-09-30 18:35:00
2:55 PM,74.8,50.5,42,30.01,10.0,NW,4.6,-,N/A,,Clear,310,2013-09-30 18:55:00
3:15 PM,75.6,52.0,44,30.00,10.0,North,3.5,-,N/A,,Clear,10,2013-09-30 19:15:00
3:35 PM,75.2,52.9,46,30.00,10.0,North,6.9,-,N/A,,Mostly Cloudy,350,2013-09-30 19:35:00
3:55 PM,75.9,52.5,44,30.00,10.0,NNW,4.6,-,N/A,,Scattered Clouds,340,2013-09-30 19:55:00
4:15 PM,76.8,52.3,42,30.00,10.0,NNE,4.6,-,N/A,,Scattered Clouds,30,2013-09-30 20:15:00
4:35 PM,74.3,53.2,48,30.00,10.0,North,3.5,-,N/A,,Overcast,350,2013-09-30 20:35:00
4:55 PM,74.3,52.2,46,30.00,10.0,Calm,Calm,-,N/A,,Mostly Cloudy,0,2013-09-30 20:55:00
5:15 PM,75.2,52.3,45,30.00,10.0,NE,3.5,-,N/A,,Mostly Cloudy,40,2013-09-30 21:15:00
5:35 PM,74.3,51.6,45,30.01,10.0,Calm,Calm,-,N/A,,Mostly Cloudy,0,2013-09-30 21:35:00
5:55 PM,73.0,51.1,46,30.01,10.0,NNW,3.5,-,N/A,,Mostly Cloudy,340,2013-09-30 21:55:00
6:15 PM,70.9,52.3,52,30.02,10.0,Calm,Calm,-,N/A,,Scattered Clouds,0,2013-09-30 22:15:00
6:35 PM,68.4,58.5,71,30.02,10.0,Calm,Calm,-,N/A,,Mostly Cloudy,0,2013-09-30 22:35:00
6:55 PM,66.9,59.9,78,30.02,10.0,Calm,Calm,-,N/A,,Mostly Cloudy,0,2013-09-30 22:55:00
7:15 PM,63.7,59.5,86,30.03,10.0,Calm,Calm,-,N/A,,Scattered Clouds,0,2013-09-30 23:15:00
7:35 PM,61.5,58.6,90,30.04,10.0,Calm,Calm,-,N/A,,Scattered Clouds,0,2013-09-30 23:35:00
7:55 PM,59.9,57.7,93,30.04,10.0,Calm,Calm,-,N/A,,Scattered Clouds,0,2013-09-30 23:55:00
8:15 PM,58.6,56.5,93,30.05,10.0,Calm,Calm,-,N/A,,Clear,0,2013-10-01 00:15:00
8:35 PM,57.4,55.6,94,30.05,10.0,Calm,Calm,-,N/A,,Clear,0,2013-10-01 00:35:00
8:55 PM,56.7,54.9,94,30.05,10.0,Calm,Calm,-,N/A,,Clear,0,2013-10-01 00:55:00
9:15 PM,55.8,54.0,94,30.06,10.0,Calm,Calm,-,N/A,,Clear,0,2013-10-01 01:15:00
9:35 PM,55.0,53.4,94,30.06,5.0,Calm,Calm,-,N/A,,Scattered Clouds,0,2013-10-01 01:35:00
9:55 PM,54.5,53.1,95,30.07,1.8,Calm,Calm,-,N/A,,Scattered Clouds,0,2013-10-01 01:55:00
10:15 PM,54.1,52.7,95,30.07,0.8,Calm,Calm,-,N/A,,Mist,0,2013-10-01 02:15:00
10:35 PM,53.8,52.2,94,30.08,2.5,Calm,Calm,-,N/A,,Clear,0,2013-10-01 02:35:00
10:55 PM,53.4,51.8,94,30.08,4.0,Calm,Calm,-,N/A,,Clear,0,2013-10-01 02:55:00
11:15 PM,52.5,51.1,95,30.07,1.0,Calm,Calm,-,N/A,,Mist,0,2013-10-01 03:15:00
11:35 PM,52.3,51.1,95,30.08,0.5,Calm,Calm,-,N/A,Fog,Fog,0,2013-10-01 03:35:00
11:55 PM,52.2,50.7,95,30.07,0.8,Calm,Calm,-,N/A,,Mostly Cloudy,0,2013-10-01 03:55:00